This demonstration page uses our WeatherBlox Daily Observations layout. Learn more.

Left ArrowRight Arrow

Hourly Observations for April 27, 2020

Temp ( °F °C ) Dew Point ( °F °C ) Humidity (%) Winds ( mph kmh ) Pressure ( in mb ) Visibility ( mi km ) Precip ( " mm )
12:15 am 00:15 Cloudy 41 5 41 5 100 100 NNE 9 15 29.84 1011 10 16.0934 0 0
12:35 am 00:35 Cloudy 41 5 41 5 100 100 NNE 8 13 29.85 1011 10 16.0934 0 0
12:55 am 00:55 Cloudy 41 5 41 5 100 100 NNE 8 13 29.85 1011 10 16.0934 0 0
1:15 am 01:15 Cloudy 41 5 41 5 100 100 NNE 10 17 29.86 1011 10 16.0934 0 0
1:35 am 01:35 Cloudy 41 5 41 5 100 100 NNE 5 7 29.86 1011 10 16.0934 0 0
1:55 am 01:55 Cloudy 41 5 41 5 100 100 N 10 17 29.86 1011 10 16.0934 0 0
2:15 am 02:15 Cloudy 41 5 41 5 100 100 NNE 8 13 29.86 1011 10 16.0934 0 0
2:35 am 02:35 Cloudy 41 5 41 5 100 100 N 9 15 29.87 1012 10 16.0934 0.01 0.254
2:55 am 02:55 Cloudy 41 5 41 5 100 100 NNE 10 17 29.88 1012 10 16.0934 0.02 0.508
3:15 am 03:15 Cloudy 41 5 41 5 100 100 N 7 11 29.88 1012 7 11.26538 0.01 0.254
3:35 am 03:35 Cloudy 41 5 41 5 100 100 NNW 13 20 29.89 1012 10 16.0934 0.01 0.254
3:55 am 03:55 Cloudy 39 4 39 4 100 100 N 12 19 29.91 1013 10 16.0934 0.02 0.508
4:15 am 04:15 Cloudy 39 4 39 4 100 100 NNW 12 19 29.92 1013 10 16.0934 0 0
4:35 am 04:35 Cloudy 39 4 39 4 100 100 N 8 13 29.92 1013 10 16.0934 0 0
4:55 am 04:55 Cloudy 39 4 39 4 100 100 NNW 12 19 29.93 1013 10 16.0934 0 0
5:15 am 05:15 Cloudy 39 4 37 3 93 93 NNW 16 26 29.94 1014 10 16.0934 0 0
5:35 am 05:35 Cloudy 37 3 37 3 100 100 NNW 13 20 29.95 1014 10 16.0934 0 0
5:55 am 05:55 Cloudy 37 3 37 3 100 100 NNW 15 24 29.95 1014 10 16.0934 0 0
6:15 am 06:15 Cloudy 37 3 37 3 100 100 N 12 19 29.96 1014 10 16.0934 0 0
6:35 am 06:35 Cloudy 37 3 37 3 100 100 N 10 17 29.97 1015 10 16.0934 0 0
7:15 am 07:15 Cloudy 39 4 37 3 93 93 NNW 10 17 29.98 1015 10 16.0934 0.01 0.254
7:35 am 07:35 Cloudy 39 4 37 3 93 93 NNW 10 17 29.99 1015 10 16.0934 0.01 0.254
7:55 am 07:55 Cloudy 39 4 37 3 93 93 N 12 19 30 1016 10 16.0934 0.01 0.254
8:15 am 08:15 Cloudy 41 5 37 3 87 87 N 12 19 30 1016 10 16.0934 0 0
8:35 am 08:35 Cloudy 41 5 37 3 87 87 N 9 15 30.01 1016 10 16.0934 0 0
8:55 am 08:55 Cloudy 43 6 37 3 81 81 N 16 26 30.02 1017 10 16.0934 0 0
9:15 am 09:15 Cloudy 43 6 37 3 81 81 N 10 17 30.02 1017 10 16.0934 0 0
9:35 am 09:35 Cloudy 45 7 37 3 76 76 N 16 26 30.02 1017 10 16.0934 0 0
9:55 am 09:55 Cloudy 45 7 39 4 81 81 NNW 20 31 30.03 1017 10 16.0934 0 0
10:15 am 10:15 Cloudy 45 7 37 3 76 76 N 16 26 30.04 1017 10 16.0934 0 0
10:35 am 10:35 Cloudy 46 8 37 3 71 71 N 13 20 30.05 1018 10 16.0934 0 0
10:55 am 10:55 Cloudy 46 8 37 3 71 71 N 16 26 30.05 1018 10 16.0934 0 0
11:15 am 11:15 Cloudy 46 8 37 3 71 71 N 13 20 30.05 1018 10 16.0934 0 0
11:35 am 11:35 Cloudy 46 8 39 4 76 76 N 14 22 30.05 1018 10 16.0934 0 0
11:55 am 11:55 Cloudy 50 10 41 5 71 71 NNW 13 20 30.05 1017 10 16.0934 0 0
12:15 pm 12:15 Cloudy 46 8 41 5 82 82 N 15 24 30.05 1018 10 16.0934 0 0
12:35 pm 12:35 Cloudy 50 10 41 5 71 71 N 15 24 30.05 1017 10 16.0934 0 0
12:55 pm 12:55 Cloudy 50 10 39 4 67 67 NNW 16 26 30.05 1017 10 16.0934 0 0
1:15 pm 13:15 Cloudy 50 10 39 4 67 67 N 16 26 30.05 1017 10 16.0934 0 0
1:35 pm 13:35 Cloudy 52 11 41 5 67 67 NNW 15 24 30.05 1018 10 16.0934 0 0
1:55 pm 13:55 Cloudy 50 10 39 4 67 67 N 17 28 30.06 1018 10 16.0934 0 0
2:15 pm 14:15 Cloudy 52 11 39 4 62 62 NNW 18 30 30.06 1018 10 16.0934 0 0
2:35 pm 14:35 Cloudy 52 11 41 5 67 67 NNW 14 22 30.07 1018 10 16.0934 0 0
2:55 pm 14:55 Cloudy 52 11 39 4 62 62 NW 14 22 30.08 1019 10 16.0934 0 0
3:15 pm 15:15 Cloudy 52 11 39 4 62 62 NNW 15 24 30.08 1019 10 16.0934 0 0
3:35 pm 15:35 Cloudy 54 12 41 5 63 63 NNW 18 30 30.07 1018 10 16.0934 0 0
3:55 pm 15:55 Mostly Cloudy 55 13 41 5 59 59 NNW 20 31 30.08 1019 10 16.0934 0 0
4:15 pm 16:15 Cloudy 54 12 39 4 58 58 NNW 16 26 30.08 1019 10 16.0934 0 0
4:35 pm 16:35 Cloudy 54 12 37 3 54 54 N 13 20 30.08 1019 10 16.0934 0 0
4:55 pm 16:55 Cloudy 55 13 39 4 55 55 NNW 17 28 30.07 1018 10 16.0934 0 0
5:15 pm 17:15 Mostly Cloudy 57 14 39 4 51 51 NNE 10 17 30.07 1018 10 16.0934 0 0
5:35 pm 17:35 Mostly Cloudy 55 13 37 3 51 51 N 10 17 30.07 1018 10 16.0934 0 0
5:55 pm 17:55 Mostly Cloudy 55 13 37 3 51 51 NNE 7 11 30.08 1019 10 16.0934 0 0
6:15 pm 18:15 Mostly Cloudy 57 14 37 3 48 48 N 7 11 30.08 1019 10 16.0934 0 0
6:35 pm 18:35 Mostly Cloudy 57 14 37 3 48 48 NE 9 15 30.08 1019 10 16.0934 0 0
6:55 pm 18:55 Partly Cloudy 57 14 37 3 48 48 NE 3 6 30.09 1019 10 16.0934 0 0
7:15 pm 19:15 Sunny 57 14 37 3 48 48 N 5 7 30.09 1019 10 16.0934 0 0
7:35 pm 19:35 Sunny 55 13 37 3 51 51 NNE 7 11 30.09 1019 10 16.0934 0 0
7:55 pm 19:55 Sunny 55 13 37 3 51 51 NNE 3 6 30.09 1019 10 16.0934 0 0
8:15 pm 20:15 Clear 54 12 37 3 54 54 NE 5 7 30.1 1019 10 16.0934 0 0
8:35 pm 20:35 Clear 54 12 37 3 54 54 NE 3 6 30.1 1019 10 16.0934 0 0
8:55 pm 20:55 Clear 50 10 37 3 62 62 Calm 30.12 1020 10 16.0934 0 0
9:15 pm 21:15 Clear 46 8 41 5 82 82 Calm 30.13 1020 10 16.0934 0 0
9:35 pm 21:35 Clear 46 8 43 6 87 87 Calm 30.14 1021 10 16.0934 0 0
9:55 pm 21:55 Clear 45 7 41 5 87 87 W 3 6 30.15 1021 10 16.0934 0 0
10:15 pm 22:15 Clear 43 6 41 5 93 93 Calm 30.15 1021 10 16.0934 0 0
10:35 pm 22:35 Clear 43 6 41 5 93 93 Calm 30.16 1021 10 16.0934 0 0
10:55 pm 22:55 Clear 45 7 41 5 87 87 Calm 30.16 1021 10 16.0934 0 0
11:15 pm 23:15 Clear 46 8 41 5 82 82 ENE 8 13 30.16 1021 10 16.0934 0 0
11:35 pm 23:35 Clear 46 8 39 4 76 76 NE 6 9 30.16 1021 10 16.0934 0 0
11:55 pm 23:55 Clear 46 8 37 3 71 71 Calm 30.16 1021 10 16.0934 0 0

Powered by AerisWeather